K5HAS Weather Reports


Display with metric or nautical units.
time (UTC)temp
F
wind
direction
speed
MPH
gust
MPH
rain 1hr
in
rain 24hr
in
rain mn
in
humidity
%
barometer
mb
20260902194407 98 224 7.0 12.0 0.00 0.00 0.00 60 1011.0
20260902194127 97 228 6.0 12.0 0.00 0.00 0.00 61 1011.0
20260902193406 97 90 7.0 12.0 0.00 0.00 0.00 59 1011.0
20260902192904 96 229 8.0 12.0 0.00 0.00 0.00 64 1011.4
20260902192406 96 230 7.0 12.0 0.00 0.00 0.00 62 1011.4
20260902191905 95 219 6.0 9.0 0.00 0.00 0.00 66 1011.4
20260902191624 95 224 6.0 8.0 0.00 0.00 0.00 64 1011.5
20260902190850 96 230 5.0 8.0 0.00 0.00 0.00 63 1011.5
20260902190606 96 207 5.0 8.0 0.00 0.00 0.00 62 1011.5
20260902185834 96 226 5.0 10.0 0.00 0.00 0.00 61 1011.8
20260902185549 97 222 6.0 10.0 0.00 0.00 0.00 60 1011.8
20260902184814 97 222 7.0 10.0 0.00 0.00 0.00 60 1011.8
20260902184303 97 219 7.0 11.0 0.00 0.00 0.00 62 1011.9
20260902183802 97 228 6.0 11.0 0.00 0.00 0.00 62 1011.9
20260902183256 96 230 7.0 11.0 0.00 0.00 0.00 60 1011.9
20260902182746 96 234 6.0 11.0 0.00 0.00 0.00 62 1012.2
20260902182455 96 207 5.0 11.0 0.00 0.00 0.00 62 1012.2
20260902181726 96 212 6.0 9.0 0.00 0.00 0.00 63 1012.2
20260902181220 96 227 6.0 9.0 0.00 0.00 0.00 64 1012.4
20260902180709 95 224 6.0 10.0 0.00 0.00 0.00 64 1012.4
20260902180200 95 224 7.0 11.0 0.00 0.00 0.00 63 1012.4
20260902175648 94 218 6.0 11.0 0.00 0.00 0.00 66 1012.9
20260902175141 94 234 5.0 10.0 0.00 0.00 0.00 68 1012.9
20260902174644 94 233 6.0 10.0 0.00 0.00 0.00 66 1012.9
20260902174140 94 223 7.0 9.0 0.00 0.00 0.00 67 1012.9
20260902173648 94 230 8.0 11.0 0.00 0.00 0.00 66 1012.9
20260902173140 94 217 8.0 11.0 0.00 0.00 0.00 67 1012.9
20260902172645 94 220 7.0 13.0 0.00 0.00 0.00 66 1013.3
20260902172140 93 226 7.0 13.0 0.00 0.00 0.00 68 1013.3
20260902171915 93 228 8.0 13.0 0.00 0.00 0.00 69 1013.3
20260902171140 93 229 8.0 13.0 0.00 0.00 0.00 69 1013.5
20260902170649 92 226 7.0 8.0 0.00 0.00 0.00 70 1013.5
20260902165819 92 227 7.0 11.0 0.00 0.00 0.00 71 1013.9
20260902165317 92 225 7.0 11.0 0.00 0.00 0.00 70 1013.9
20260902164817 92 238 7.0 10.0 0.00 0.00 0.00 70 1013.9
20260902164309 92 226 6.0 14.0 0.00 0.00 0.00 72 1013.9
20260902164030 91 220 6.0 14.0 0.00 0.00 0.00 72 1013.9
20260902163309 92 236 8.0 15.0 0.00 0.00 0.00 72 1013.9
20260902162806 92 260 10.0 15.0 0.00 0.00 0.00 72 1013.9
20260902162307 91 226 10.0 15.0 0.00 0.00 0.00 72 1013.9
20260902161807 91 230 11.0 15.0 0.00 0.00 0.00 74 1013.9
20260902161306 91 227 11.0 15.0 0.00 0.00 0.00 75 1013.9
20260902160808 91 231 10.0 14.0 0.00 0.00 0.00 75 1013.9
20260902160254 91 228 10.0 14.0 0.00 0.00 0.00 76 1013.9
20260902155753 90 230 10.0 16.0 0.00 0.00 0.00 76 1013.8
20260902155255 89 224 11.0 16.0 0.00 0.00 0.00 77 1013.8
20260902154754 89 226 11.0 16.0 0.00 0.00 0.00 78 1013.8
20260902154255 88 235 10.0 16.0 0.00 0.00 0.00 80 1013.6
20260902153753 88 208 11.0 14.0 0.00 0.00 0.00 80 1013.6
20260902153516 87 216 11.0 15.0 0.00 0.00 0.00 80 1013.6
20260902153011 87 207 11.0 15.0 0.00 0.00 0.00 81 1013.7
20260902152254 87 228 10.0 15.0 0.00 0.00 0.00 81 1013.7
20260902151745 87 227 10.0 15.0 0.00 0.00 0.00 82 1013.7
20260902151238 87 218 10.0 15.0 0.00 0.00 0.00 82 1013.6
20260902150729 87 234 10.0 14.0 0.00 0.00 0.00 82 1013.6
20260902150217 86 213 9.0 14.0 0.00 0.00 0.00 83 1013.6
20260902145922 86 224 8.0 13.0 0.00 0.00 0.00 85 1013.7
20260902145151 86 223 8.0 13.0 0.00 0.00 0.00 84 1013.7
20260902144640 85 200 7.0 13.0 0.00 0.00 0.00 85 1013.7
20260902144131 85 214 7.0 11.0 0.00 0.00 0.00 86 1013.9
20260902143625 85 197 7.0 12.0 0.00 0.00 0.00 86 1013.9
20260902143119 85 219 7.0 12.0 0.00 0.00 0.00 86 1013.9
20260902142843 84 213 8.0 12.0 0.00 0.00 0.00 86 1013.6
20260902142102 84 220 8.0 12.0 0.00 0.00 0.00 87 1013.6
20260902141548 84 216 8.0 12.0 0.00 0.00 0.00 87 1013.6
20260902141043 84 220 7.0 11.0 0.00 0.00 0.00 87 1013.5
20260902140536 84 214 6.0 11.0 0.00 0.00 0.00 87 1013.5
20260902140027 83 220 6.0 10.0 0.00 0.00 0.00 88 1013.5
20260902135512 83 220 7.0 11.0 0.00 0.00 0.00 88 1013.4
20260902135004 83 232 8.0 11.0 0.00 0.00 0.00 88 1013.4
20260902134456 83 225 9.0 14.0 0.00 0.00 0.00 88 1013.4
20260902133947 83 219 8.0 14.0 0.00 0.00 0.00 88 1013.4
20260902133441 83 222 9.0 14.0 0.00 0.00 0.00 88 1013.4
20260902132934 83 216 9.0 14.0 0.00 0.00 0.00 88 1013.4
20260902132427 83 214 9.0 14.0 0.00 0.00 0.00 88 1013.4
20260902131912 82 236 10.0 13.0 0.00 0.00 0.00 88 1013.4
20260902131406 82 215 9.0 13.0 0.00 0.00 0.00 88 1013.0
20260902130856 82 224 8.0 12.0 0.00 0.00 0.00 89 1013.0
20260902130356 82 228 8.0 12.0 0.00 0.00 0.00 89 1013.0
20260902125856 82 216 7.0 12.0 0.00 0.00 0.00 89 1012.9
20260902125621 82 219 7.0 12.0 0.00 0.00 0.00 89 1012.9
20260902124854 82 213 8.0 12.0 0.00 0.00 0.00 89 1012.9
20260902124624 82 222 9.0 13.0 0.00 0.00 0.00 89 1012.7
20260902124114 82 227 9.0 13.0 0.00 0.00 0.00 89 1012.7
20260902123355 82 218 9.0 13.0 0.00 0.00 0.00 89 1012.7
20260902122852 82 228 9.0 13.0 0.00 0.00 0.00 89 1012.6
20260902122354 82 218 8.0 13.0 0.00 0.00 0.00 89 1012.6
20260902121853 82 220 7.0 13.0 0.00 0.00 0.00 89 1012.6
20260902121355 82 212 6.0 11.0 0.00 0.00 0.00 89 1012.5
20260902120850 82 227 7.0 11.0 0.00 0.00 0.00 89 1012.5
20260902120349 82 220 7.0 11.0 0.00 0.00 0.00 89 1012.5
20260902115850 82 205 6.0 11.0 0.00 0.00 0.00 89 1012.5
20260902115613 82 214 6.0 11.0 0.00 0.00 0.00 89 1012.5
20260902114849 82 213 6.0 11.0 0.00 0.00 0.00 89 1012.5
20260902114348 82 194 5.0 11.0 0.00 0.00 0.00 89 1012.5
20260902113847 82 208 5.0 10.0 0.00 0.00 0.00 89 1012.5
20260902113348 82 212 5.0 10.0 0.00 0.00 0.00 88 1012.5
20260902112836 82 220 5.0 10.0 0.00 0.00 0.00 88 1012.4
20260902112330 82 211 6.0 10.0 0.00 0.00 0.00 88 1012.4
20260902111829 82 209 7.0 10.0 0.00 0.00 0.00 88 1012.4
20260902111329 82 206 7.0 14.0 0.00 0.00 0.00 89 1012.2
20260902110829 82 215 8.0 14.0 0.00 0.00 0.00 89 1012.2
20260902110328 82 200 7.0 12.0 0.00 0.00 0.00 88 1012.2
20260902105828 82 207 6.0 11.0 0.00 0.00 0.00 89 1012.1
20260902105326 82 224 6.0 12.0 0.00 0.00 0.00 89 1012.1
20260902104824 82 203 6.0 12.0 0.00 0.00 0.00 89 1012.1
20260902104321 82 203 5.0 12.0 0.00 0.00 0.00 89 1011.9
20260902103818 82 202 5.0 12.0 0.00 0.00 0.00 89 1011.9
20260902103318 82 228 4.0 11.0 0.00 0.00 0.00 89 1011.9
20260902102804 82 205 4.0 11.0 0.00 0.00 0.00 89 1011.9
20260902102258 82 186 5.0 11.0 0.00 0.00 0.00 88 1011.9
20260902101748 82 199 5.0 11.0 0.00 0.00 0.00 88 1011.9
20260902101237 82 196 5.0 11.0 0.00 0.00 0.00 88 1011.9
20260902100732 82 187 5.0 11.0 0.00 0.00 0.00 88 1011.9
20260902100226 82 206 6.0 13.0 0.00 0.00 0.00 88 1011.9
20260902095715 82 213 6.0 13.0 0.00 0.00 0.00 88 1011.8
20260902095202 82 213 6.0 10.0 0.00 0.00 0.00 88 1011.8
20260902094659 82 178 6.0 10.0 0.00 0.00 0.00 88 1011.8
20260902094150 82 182 5.0 12.0 0.00 0.00 0.00 88 1011.8
20260902093640 82 166 6.0 12.0 0.00 0.00 0.00 88 1011.8
20260902093352 82 220 7.0 12.0 0.00 0.00 0.00 88 1011.8
20260902092624 82 217 6.0 12.0 0.00 0.00 0.00 88 1011.8
20260902092113 82 213 6.0 11.0 0.00 0.00 0.00 88 1011.8
20260902091603 82 206 6.0 11.0 0.00 0.00 0.00 88 1011.8
20260902091054 82 212 6.0 11.0 0.00 0.00 0.00 88 1011.9
20260902090806 82 193 6.0 11.0 0.00 0.00 0.00 88 1011.9
20260902090041 82 213 6.0 10.0 0.00 0.00 0.00 88 1011.9
20260902085531 82 186 6.0 10.0 0.00 0.00 0.00 88 1011.9
20260902085025 82 191 5.0 10.0 0.00 0.00 0.00 88 1011.9
20260902084515 83 204 5.0 12.0 0.00 0.00 0.00 88 1011.9
20260902084012 83 223 6.0 13.0 0.00 0.00 0.00 88 1011.9
20260902083722 83 215 6.0 13.0 0.00 0.00 0.00 88 1011.9
20260902082949 83 207 6.0 11.0 0.00 0.00 0.00 89 1011.9
20260902082703 83 186 5.0 11.0 0.00 0.00 0.00 88 1011.9
20260902081937 82 206 5.0 11.0 0.00 0.00 0.00 88 1011.9
20260902081428 82 207 4.0 11.0 0.00 0.00 0.00 88 1012.0
20260902080928 82 213 4.0 10.0 0.00 0.00 0.00 89 1012.0
20260902080428 82 177 5.0 11.0 0.00 0.00 0.00 89 1012.0
20260902075929 82 90 4.0 11.0 0.00 0.00 0.00 89 1012.0
20260902075428 82 186 4.0 9.0 0.00 0.00 0.00 89 1012.0
20260902075202 82 193 4.0 9.0 0.00 0.00 0.00 89 1012.0
20260902074428 82 90 4.0 8.0 0.00 0.00 0.00 89 1012.1
20260902073928 82 90 3.0 8.0 0.00 0.00 0.00 89 1012.1
20260902073427 82 183 3.0 9.0 0.00 0.00 0.00 89 1012.1
20260902072921 82 178 4.0 9.0 0.00 0.00 0.00 89 1012.2
20260902072421 82 192 4.0 9.0 0.00 0.00 0.00 89 1012.2
20260902072144 82 182 4.0 9.0 0.00 0.00 0.00 89 1012.2
20260902071422 82 195 4.0 9.0 0.00 0.00 0.00 89 1012.4
20260902070922 82 90 4.0 9.0 0.00 0.00 0.00 89 1012.4
20260902070423 82 90 4.0 9.0 0.00 0.00 0.00 89 1012.4
20260902065921 82 181 4.0 9.0 0.00 0.00 0.00 89 1012.4
20260902065638 81 180 4.0 9.0 0.00 0.00 0.00 89 1012.4
20260902064901 81 173 4.0 10.0 0.00 0.00 0.00 89 1012.4
20260902064354 81 170 4.0 10.0 0.00 0.00 0.00 89 1012.2
20260902063845 81 180 4.0 9.0 0.00 0.00 0.00 89 1012.2
20260902063337 81 194 5.0 9.0 0.00 0.00 0.00 89 1012.2
20260902062837 81 195 4.0 9.0 0.00 0.00 0.00 89 1012.1
20260902062601 80 172 4.0 9.0 0.00 0.00 0.00 89 1012.1
20260902061834 80 180 4.0 9.0 0.00 0.00 0.00 90 1012.1
20260902061333 80 189 4.0 8.0 0.00 0.00 0.00 90 1012.2
20260902060831 80 90 4.0 8.0 0.00 0.00 0.00 90 1012.2
20260902060328 80 179 4.0 9.0 0.00 0.00 0.00 90 1012.2
20260902055826 80 168 4.0 9.0 0.00 0.00 0.00 90 1012.3
20260902055325 80 174 5.0 9.0 0.00 0.00 0.00 90 1012.3
20260902054828 79 90 5.0 8.0 0.00 0.00 0.00 90 1012.3
20260902054327 79 164 5.0 9.0 0.00 0.00 0.00 90 1012.1
20260902053829 79 90 6.0 9.0 0.00 0.00 0.00 91 1012.1
20260902053317 78 167 6.0 8.0 0.00 0.00 0.00 90 1012.1
20260902052811 78 164 6.0 8.0 0.00 0.00 0.00 90 1011.9
20260902052306 78 163 6.0 8.0 0.00 0.00 0.00 89 1011.9
20260902051753 78 162 5.0 8.0 0.00 0.00 0.00 89 1011.9
20260902051253 78 156 5.0 8.0 0.00 0.00 0.00 89 1012.2
20260902050754 78 153 4.0 7.0 0.00 0.00 0.00 89 1012.2
20260902050253 78 154 4.0 7.0 0.00 0.00 0.00 89 1012.2
20260902045752 78 166 4.0 5.0 0.00 0.00 0.00 89 1012.4
20260902045254 78 160 4.0 5.0 0.00 0.00 0.00 89 1012.4
20260902045015 78 157 4.0 5.0 0.00 0.00 0.00 89 1012.4
20260902044252 79 156 4.0 5.0 0.00 0.00 0.00 88 1012.4
20260902043751 79 148 3.0 5.0 0.00 0.00 0.00 88 1012.4
20260902043523 79 147 3.0 5.0 0.00 0.00 0.00 88 1012.4
20260902042748 79 151 2.0 5.0 0.00 0.00 0.00 88 1012.7
20260902042242 79 138 2.0 4.0 0.00 0.00 0.00 88 1012.7
20260902041732 79 137 3.0 4.0 0.00 0.00 0.00 87 1012.7
20260902041226 80 128 3.0 4.0 0.00 0.00 0.00 88 1012.8
20260902040718 80 127 3.0 3.0 0.00 0.00 0.00 88 1012.8
20260902040424 80 127 3.0 4.0 0.00 0.00 0.00 88 1012.8
20260902035702 80 127 3.0 4.0 0.00 0.00 0.00 88 1012.5
20260902035202 80 127 3.0 4.0 0.00 0.00 0.00 88 1012.5
20260902034702 80 127 3.0 4.0 0.00 0.00 0.00 88 1012.5
20260902034206 80 127 3.0 4.0 0.00 0.00 0.00 88 1012.4
20260902033701 80 128 2.0 4.0 0.00 0.00 0.00 88 1012.4
20260902033202 80 128 3.0 4.0 0.00 0.00 0.00 87 1012.4
20260902032704 80 128 3.0 4.0 0.00 0.00 0.00 87 1012.4
20260902032158 80 128 3.0 4.0 0.00 0.00 0.00 87 1012.4
20260902031700 80 128 3.0 4.0 0.00 0.00 0.00 87 1012.4
20260902031159 80 128 2.0 4.0 0.00 0.00 0.00 87 1012.2
20260902030657 80 128 1.0 4.0 0.00 0.00 0.00 87 1012.2
20260902030152 80 129 1.0 4.0 0.00 0.00 0.00 87 1012.2
20260902025646 81 130 2.0 4.0 0.00 0.00 0.00 86 1011.8
20260902025136 81 130 2.0 5.0 0.00 0.00 0.00 86 1011.8
20260902024631 81 130 2.0 5.0 0.00 0.00 0.00 85 1011.8
20260902024120 81 107 3.0 5.0 0.00 0.00 0.00 85 1011.6
20260902023610 82 107 2.0 5.0 0.00 0.00 0.00 85 1011.6
20260902023105 82 107 3.0 5.0 0.00 0.00 0.00 85 1011.6
20260902022553 82 107 4.0 5.0 0.00 0.00 0.00 85 1011.2
20260902022048 82 116 3.0 8.0 0.00 0.00 0.00 85 1011.2
20260902021537 82 120 4.0 8.0 0.00 0.00 0.00 85 1011.2
20260902021028 82 153 4.0 8.0 0.00 0.00 0.00 84 1010.9
20260902020517 82 155 3.0 7.0 0.00 0.00 0.00 84 1010.9
20260902020011 82 154 3.0 6.0 0.00 0.00 0.00 84 1010.8
20260902015501 82 145 4.0 6.0 0.00 0.00 0.00 84 1010.8
20260902015000 83 150 4.0 8.0 0.00 0.00 0.00 83 1010.8
20260902014458 83 157 5.0 9.0 0.00 0.00 0.00 83 1010.8
20260902013959 83 152 5.0 9.0 0.00 0.00 0.00 83 1010.8
20260902012953 83 164 5.0 9.0 0.00 0.00 0.00 83 1010.6
20260902012454 83 159 5.0 10.0 0.00 0.00 0.00 83 1010.6
20260902011954 83 174 6.0 10.0 0.00 0.00 0.00 83 1010.6
20260902011454 83 163 6.0 11.0 0.00 0.00 0.00 83 1010.5
20260902010953 83 166 6.0 11.0 0.00 0.00 0.00 83 1010.5
20260902010703 83 163 8.0 11.0 0.00 0.00 0.00 84 1010.5
20260902005942 83 165 8.0 11.0 0.00 0.00 0.00 83 1010.5
20260902005442 84 155 7.0 11.0 0.00 0.00 0.00 83 1010.5
20260902004942 84 167 6.0 11.0 0.00 0.00 0.00 82 1010.5
20260902004442 84 90 7.0 10.0 0.00 0.00 0.00 82 1010.4
20260902003941 84 166 7.0 10.0 0.00 0.00 0.00 81 1010.4
20260902003443 84 153 7.0 10.0 0.00 0.00 0.00 81 1010.4
20260902002941 85 90 7.0 12.0 0.00 0.00 0.00 80 1010.7
20260902002431 85 162 8.0 12.0 0.00 0.00 0.00 80 1010.7
20260902001921 85 169 8.0 12.0 0.00 0.00 0.00 80 1010.7
20260902001415 84 159 8.0 13.0 0.00 0.00 0.00 79 1010.4
20260902000905 84 166 7.0 13.0 0.00 0.00 0.00 80 1010.4
20260902000407 84 146 6.0 11.0 0.00 0.00 0.00 81 1010.4
20260901235902 84 141 7.0 11.0 0.00 0.00 0.00 82 1010.6
20260901235404 83 143 6.0 11.0 0.00 0.00 0.00 82 1010.6
20260901234903 83 141 6.0 11.0 0.00 0.00 0.00 82 1010.6
20260901234403 83 151 5.0 11.0 0.00 0.00 0.00 82 1010.7
20260901233909 83 142 6.0 10.0 0.00 0.00 0.00 82 1010.7
20260901233625 83 136 7.0 11.0 0.00 0.00 0.00 81 1010.7
20260901232902 83 112 6.0 11.0 0.00 0.00 0.00 81 1010.7
20260901232401 83 120 6.0 11.0 0.00 0.00 0.00 80 1010.7
20260901231903 83 90 5.0 11.0 0.00 0.00 0.00 80 1010.7
20260901231401 83 151 7.0 17.0 0.00 0.00 0.00 81 1010.3
20260901230851 83 151 10.0 17.0 0.00 0.00 0.00 81 1010.3
20260901230344 84 162 10.0 17.0 0.00 0.00 0.00 81 1010.3
20260901225834 84 155 10.0 22.0 0.00 0.00 0.00 82 1010.3
20260901225321 84 90 11.0 22.0 0.00 0.00 0.00 82 1010.3
20260901224815 85 140 12.0 21.0 0.00 0.00 0.00 81 1010.3
20260901224012 87 165 10.0 21.0 0.00 0.00 0.00 78 1010.3
20260901223248 87 90 9.0 17.0 0.00 0.00 0.00 76 1010.3
20260901222738 87 119 9.0 14.0 0.00 0.00 0.00 75 1010.0
20260901222452 87 138 8.0 13.0 0.00 0.00 0.00 75 1010.0
20260901221723 87 139 8.0 13.0 0.00 0.00 0.00 76 1010.0
20260901221212 87 146 9.0 18.0 0.00 0.00 0.00 77 1010.1
20260901220706 88 110 11.0 18.0 0.00 0.00 0.00 77 1010.1
20260901220157 89 117 12.0 19.0 0.00 0.00 0.00 76 1010.1
20260901215651 90 110 10.0 19.0 0.00 0.00 0.00 75 1010.0
20260901215418 92 130 6.0 17.0 0.00 0.00 0.00 69 1010.0
20260901214647 95 90 4.0 14.0 0.00 0.00 0.00 62 1010.0
20260901214411 96 80 7.0 14.0 0.00 0.00 0.00 58 1009.8
20260901213915 98 104 7.0 14.0 0.00 0.00 0.00 57 1009.8
20260901213147 98 90 7.0 12.0 0.00 0.00 0.00 54 1009.8
20260901212916 99 85 5.0 12.0 0.00 0.00 0.00 55 1009.9
20260901212147 99 114 4.0 11.0 0.00 0.00 0.00 53 1009.9
20260901211646 99 210 6.0 11.0 0.00 0.00 0.00 54 1009.9
20260901211149 98 178 6.0 11.0 0.00 0.00 0.00 54 1010.3
20260901210648 98 110 6.0 11.0 0.00 0.00 0.00 56 1010.3
20260901210401 98 159 5.0 13.0 0.00 0.00 0.00 55 1010.3
20260901205625 98 128 6.0 13.0 0.00 0.00 0.00 54 1010.6
20260901205112 97 225 6.0 14.0 0.00 0.00 0.00 57 1010.6
20260901204556 97 161 6.0 14.0 0.00 0.00 0.00 56 1010.6
20260901204044 97 168 4.0 11.0 0.00 0.00 0.00 57 1010.7
20260901203542 97 197 4.0 7.0 0.00 0.00 0.00 53 1010.7
20260901203044 97 205 3.0 5.0 0.00 0.00 0.00 55 1010.7
20260901202542 97 232 3.0 5.0 0.00 0.00 0.00 53 1010.8
20260901202306 97 263 3.0 8.0 0.00 0.00 0.00 53 1010.8
20260901201543 97 236 4.0 8.0 0.00 0.00 0.00 55 1010.8
20260901201048 97 218 5.0 8.0 0.00 0.00 0.00 58 1010.8
20260901200540 97 218 4.0 8.0 0.00 0.00 0.00 58 1010.8
20260901200030 96 238 3.0 6.0 0.00 0.00 0.00 55 1010.8
20260901195524 96 217 3.0 6.0 0.00 0.00 0.00 58 1011.0
20260901195018 97 227 4.0 8.0 0.00 0.00 0.00 58 1011.0